Change the Weather History Date:

Friday, January 18, 2013

  Actual Average (KONT) Record (KONT)
Temperature  
Mean Temperature 70 °F 55 °F  
Max Temperature 79 °F 65 °F 83 °F (2014)
Min Temperature 60 °F 44 °F 35 °F (2007)
Degree Days  
Heating Degree Days 0 11  
Month to date heating degree days 198  
Since 1 July heating degree days 758  
Cooling Degree Days 4 0  
Month to date cooling degree days 0  
Year to date cooling degree days 0  
Growing Degree Days 20 (Base 50)    
Moisture  
Dew Point 13 °F    
Average Humidity 13    
Maximum Humidity 17    
Minimum Humidity 8    
Precipitation  
Precipitation 0.00 in 0.11 in 1.35 in (2010)
Month to date precipitation 2.22  
Year to date precipitation 2.22  
Since 1 July precipitation 6.88  
Snow  
Snow 0.00 in - - ()
Month to date snowfall  
Year to date snowfall  
Since 1 July snowfall  
Snow Depth -    
Sea Level Pressure  
Sea Level Pressure 30.11 in    
Wind  
Wind Speed 10 mph (SE)    
Max Wind Speed 18 mph    
Max Gust Speed 30 mph    
Visibility 10 miles    
Events      
T = Trace of Precipitation, MM = Missing Value Source: NWS Daily Summary

Daily Weather History Graph

Daily Weather History Graph

Search for Another Location

Airport or City:

Trip Planner

Search our weather history database for the weather conditions in past years. The results will help you decide how hot, cold, wet, or windy it might be!

Date:

Astronomy

Jan. 18, 2013 Rise Set
Actual Time 6:54 AM PST 5:07 PM PST
Civil Twilight 6:27 AM PST 5:34 PM PST
Nautical Twilight 5:57 AM PST 6:05 PM PST
Astronomical Twilight 5:27 AM PST 6:35 PM PST
Moon 10:58 AM PST (1/18) No Moon Set
Length of Visible Light 11h 07m
Length of Day
10h 13m
Waxing Crescent, 48% of the Moon is Illuminated
Jan 18
Waxing Crescent
Jan 18
First Quarter
Jan 26
Full
Feb 3
Last Quarter
Feb 9
New

Hourly Weather History & Observations

Time (PST) Temp. Dew Point Humidity Pressure Visibility Wind Dir Wind Speed Gust Speed Precip Events Conditions
12:56 AM 60.8 °F 14.0 °F 16% 30.16 in 10.0 mi SSE 8.1 mph - N/A   Clear
1:56 AM 61.0 °F 13.1 °F 15% 30.14 in 10.0 mi SE 9.2 mph - N/A   Clear
2:56 AM 61.9 °F 12.0 °F 14% 30.13 in 10.0 mi SSE 6.9 mph - N/A   Clear
3:56 AM 60.8 °F 15.8 °F 17% 30.14 in 10.0 mi SE 11.5 mph - N/A   Clear
4:56 AM 61.9 °F 13.1 °F 15% 30.12 in 10.0 mi SSE 9.2 mph - N/A   Clear
5:56 AM 61.9 °F 12.0 °F 14% 30.12 in 10.0 mi SSE 9.2 mph - N/A   Clear
6:56 AM 62.6 °F 12.2 °F 14% 30.14 in 10.0 mi SSE 8.1 mph - N/A   Clear
7:56 AM 63.9 °F 14.0 °F 14% 30.14 in 10.0 mi SE 11.5 mph - N/A   Clear
8:56 AM 66.9 °F 17.1 °F 15% 30.16 in 10.0 mi SE 11.5 mph - N/A   Clear
9:56 AM 69.8 °F 17.6 °F 14% 30.17 in 10.0 mi ESE 12.7 mph - N/A   Clear
10:56 AM 73.9 °F 14.0 °F 10% 30.13 in 10.0 mi ESE 13.8 mph - N/A   Clear
11:56 AM 75.9 °F 13.1 °F 9% 30.09 in 10.0 mi East 13.8 mph - N/A   Clear
12:56 PM 79.0 °F 12.0 °F 8% 30.06 in 10.0 mi East 16.1 mph 23.0 mph N/A   Clear
1:56 PM 77.9 °F 10.0 °F 8% 30.06 in 10.0 mi East 18.4 mph 29.9 mph N/A   Clear
2:56 PM 77.9 °F 10.0 °F 8% 30.06 in 10.0 mi ENE 17.3 mph 24.2 mph N/A   Clear
3:56 PM 75.2 °F 8.6 °F 8% 30.07 in 10.0 mi ENE 15.0 mph - N/A   Clear
4:56 PM 70.9 °F 12.0 °F 10% 30.06 in 10.0 mi ESE 6.9 mph - N/A   Clear
5:56 PM 68.0 °F 15.1 °F 13% 30.08 in 10.0 mi SSE 6.9 mph - N/A   Clear
6:56 PM 66.2 °F 12.2 °F 12% 30.11 in 10.0 mi SSE 5.8 mph - N/A   Clear
7:56 PM 65.8 °F 11.1 °F 12% 30.11 in 10.0 mi SSE 8.1 mph - N/A   Clear
8:56 PM 63.9 °F 13.1 °F 14% 30.12 in 10.0 mi SSE 8.1 mph - N/A   Clear
9:56 PM 64.4 °F 12.2 °F 13% 30.14 in 10.0 mi SSE 8.1 mph - N/A   Clear
10:56 PM 63.0 °F 12.0 °F 14% 30.12 in 10.0 mi SSE 5.8 mph - N/A   Clear
11:56 PM 63.0 °F 12.0 °F 14% 30.12 in 10.0 mi SE 11.5 mph 17.3 mph N/A   Clear